N0LSD-13 Weather Reports


Display with metric or nautical units.
time (UTC)temp
F
wind
direction
speed
MPH
gust
MPH
rain 1hr
in
rain 24hr
in
rain mn
in
humidity
%
barometer
mb
20260509031005 43 269 0.0 0.0 0.00 0.07 0.07 61 990.3
20260509030004 44 269 0.0 0.0 0.00 0.07 0.07 61 990.3
20260509025004 44 269 0.0 0.0 0.00 0.07 0.07 58 990.5
20260509023006 45 269 0.0 0.0 0.00 0.07 0.07 55 990.4
20260509021005 46 269 0.0 0.0 0.00 0.07 0.07 53 990.6
20260509020004 46 269 0.0 0.0 0.00 0.07 0.07 48 990.4
20260509015005 46 269 0.0 0.0 0.00 0.07 0.07 45 990.1
20260509014005 47 269 0.0 0.0 0.00 0.08 0.07 46 990.2
20260509013004 47 269 0.0 0.0 0.00 0.09 0.07 46 990.2
20260509012004 48 269 0.0 0.0 0.00 0.09 0.07 45 990.0
20260509011005 48 269 0.0 0.0 0.00 0.10 0.07 39 990.1
20260509010004 49 269 0.0 0.0 0.00 0.12 0.07 41 990.3
20260509005004 50 269 0.0 1.0 0.00 0.13 0.07 39 990.2
20260509004004 51 270 1.0 2.0 0.00 0.13 0.07 37 990.2
20260509003004 51 272 1.0 2.0 0.00 0.13 0.07 36 990.1
20260509002004 52 277 0.0 2.0 0.00 0.13 0.07 36 989.8
20260509001003 53 283 1.0 2.0 0.00 0.13 0.07 35 989.9
20260508235005 54 282 1.0 5.0 0.00 0.13 0.07 32 990.0
20260508234004 54 268 1.0 5.0 0.00 0.13 0.07 32 989.8
20260508233005 54 266 2.0 5.0 0.00 0.13 0.07 32 989.9
20260508232004 55 246 2.0 5.0 0.00 0.13 0.07 29 989.8
20260508231004 56 270 2.0 7.0 0.00 0.13 0.07 29 990.0
20260508225004 55 239 2.0 5.0 0.00 0.13 0.07 35 989.6
20260508224004 55 276 2.0 6.0 0.00 0.13 0.07 36 989.9
20260508223004 56 260 2.0 7.0 0.00 0.13 0.07 37 990.2
20260508222005 56 195 4.0 7.0 0.00 0.13 0.07 36 990.0
20260508220006 56 204 2.0 8.0 0.00 0.13 0.07 36 990.1
20260508215005 56 242 3.0 7.0 0.00 0.13 0.07 35 989.9
20260508214004 56 165 3.0 6.0 0.00 0.13 0.07 36 990.1
20260508213004 55 254 2.0 7.0 0.00 0.13 0.07 38 990.1
20260508212004 55 143 3.0 7.0 0.00 0.13 0.07 39 990.1
20260508211005 55 252 2.0 6.0 0.00 0.13 0.07 38 990.1
20260508205007 56 121 3.0 8.0 0.00 0.13 0.07 37 990.1
20260508204004 56 235 3.0 7.0 0.00 0.13 0.07 37 990.3
20260508203004 56 113 3.0 8.0 0.00 0.13 0.07 39 990.2
20260508202004 56 286 1.0 7.0 0.00 0.13 0.07 39 990.4
20260508201006 55 120 2.0 9.0 0.00 0.13 0.07 40 990.6
20260508200004 56 129 3.0 8.0 0.00 0.13 0.07 40 990.7
20260508195004 56 238 3.0 6.0 0.00 0.13 0.07 41 990.7
20260508194004 56 227 3.0 7.0 0.00 0.13 0.07 43 990.9
20260508193004 56 225 3.0 6.0 0.00 0.13 0.07 45 991.0
20260508192004 56 231 1.0 7.0 0.00 0.13 0.07 48 991.1
20260508191004 55 221 2.0 8.0 0.00 0.13 0.07 51 991.3
20260508190004 55 123 3.0 7.0 0.00 0.13 0.07 51 991.5
20260508185004 55 302 1.0 6.0 0.00 0.13 0.07 54 991.4
20260508184004 55 250 3.0 9.0 0.00 0.13 0.07 52 991.6
20260508183004 54 147 4.0 8.0 0.00 0.13 0.07 54 991.7
20260508182004 55 312 1.0 10.0 0.00 0.13 0.07 55 991.7
20260508180004 55 259 1.0 6.0 0.00 0.13 0.07 55 991.7
20260508175004 54 281 2.0 8.0 0.00 0.13 0.07 56 991.6
20260508174004 54 255 1.0 8.0 0.00 0.13 0.07 58 991.6
20260508173005 54 265 3.0 9.0 0.00 0.13 0.07 56 991.8
20260508172004 53 210 2.0 7.0 0.00 0.13 0.07 58 991.8
20260508171004 53 194 2.0 8.0 0.00 0.13 0.07 57 992.0
20260508170005 54 228 3.0 10.0 0.00 0.13 0.07 57 991.9
20260508164003 54 284 1.0 8.0 0.00 0.13 0.07 55 992.0
20260508163004 52 261 1.0 8.0 0.00 0.13 0.07 57 992.1
20260508162004 51 244 2.0 6.0 0.00 0.13 0.07 66 992.2
20260508161005 52 225 3.0 7.0 0.00 0.13 0.07 62 992.4
20260508160004 51 280 1.0 7.0 0.00 0.13 0.07 60 992.3
20260508154005 51 266 2.0 7.0 0.00 0.13 0.07 66 992.4
20260508152006 50 229 3.0 6.0 0.00 0.13 0.07 72 992.6
20260508150005 48 258 1.0 5.0 0.00 0.13 0.07 77 992.8
20260508145005 47 289 0.0 2.0 0.00 0.13 0.07 81 992.5
20260508142006 45 303 0.0 2.0 0.00 0.13 0.07 85 992.4
20260508141003 46 308 0.0 2.0 0.00 0.13 0.07 86 992.5
20260508140005 44 281 0.0 3.0 0.00 0.13 0.07 88 992.5
20260508135004 45 281 0.0 1.0 0.00 0.13 0.07 90 992.6
20260508134004 43 290 0.0 1.0 0.00 0.13 0.07 93 992.6
20260508133004 42 293 0.0 1.0 0.00 0.13 0.07 95 992.6
20260508131006 41 313 0.0 1.0 0.00 0.13 0.07 96 992.5
20260508130005 41 286 0.0 2.0 0.00 0.13 0.07 97 992.6
20260508125005 41 284 0.0 0.0 0.00 0.13 0.07 97 992.4
20260508124004 40 284 0.0 0.0 0.00 0.13 0.07 96 992.3
20260508123004 41 284 0.0 0.0 0.01 0.13 0.07 96 992.4
20260508122004 40 284 0.0 0.0 0.02 0.13 0.07 96 992.4
20260508121004 40 284 0.0 0.0 0.03 0.13 0.07 96 992.2
20260508120005 41 284 0.0 0.0 0.05 0.13 0.07 95 992.4
20260508115004 40 283 0.0 3.0 0.05 0.13 0.07 95 992.3
20260508114006 40 274 1.0 5.0 0.05 0.13 0.07 95 992.3
20260508113006 41 263 1.0 5.0 0.04 0.12 0.06 95 992.3
20260508112004 41 262 2.0 8.0 0.03 0.11 0.05 94 992.3
20260508111004 41 280 1.0 7.0 0.02 0.10 0.04 93 992.2
20260508110005 42 251 2.0 5.0 0.01 0.08 0.02 93 992.2
20260508105005 42 283 0.0 0.0 0.01 0.08 0.02 93 991.7
20260508103004 42 283 0.0 2.0 0.02 0.08 0.02 91 991.2
20260508101004 42 266 1.0 3.0 0.02 0.08 0.02 91 991.5
20260508100004 42 280 0.0 2.0 0.01 0.07 0.01 92 991.1
20260508095004 43 282 0.0 0.0 0.01 0.07 0.01 93 991.3
20260508094004 42 282 0.0 0.0 0.00 0.06 0.00 93 991.1
20260508093005 42 283 0.0 0.0 0.00 0.06 0.00 93 990.9
20260508092005 43 283 0.0 0.0 0.00 0.06 0.00 93 990.9
20260508091004 43 282 0.0 0.0 0.00 0.06 0.00 93 991.4
20260508085004 43 287 0.0 0.0 0.00 0.06 0.00 91 991.3
20260508084004 44 287 1.0 5.0 0.00 0.06 0.00 89 991.4
20260508082004 44 286 0.0 5.0 0.00 0.06 0.00 92 991.3
20260508081005 44 265 1.0 8.0 0.00 0.06 0.00 94 991.3
20260508080005 43 191 1.0 6.0 0.00 0.06 0.00 95 991.4
20260508075007 43 283 1.0 3.0 0.00 0.06 0.00 96 991.5
20260508074005 43 275 1.0 5.0 0.00 0.06 0.00 97 991.3
20260508073004 42 278 0.0 3.0 0.00 0.06 0.00 98 991.4
20260508072006 42 279 0.0 0.0 0.00 0.06 0.00 99 991.4
20260508071005 42 279 0.0 1.0 0.00 0.06 0.00 99 991.5
20260508070005 42 284 0.0 3.0 0.00 0.06 0.00 99 991.4
20260508065006 42 268 1.0 3.0 0.00 0.06 0.00 99 991.4
20260508064004 42 277 0.0 2.0 0.00 0.06 0.00 99 991.6
20260508063005 41 281 0.0 1.0 0.00 0.06 0.00 99 991.5
20260508061004 40 282 0.0 0.0 0.00 0.06 0.00 99 991.6
20260508055005 40 282 0.0 0.0 0.00 0.06 0.00 99 991.7
20260508054004 40 282 0.0 1.0 0.00 0.06 0.00 99 991.6
20260508052004 39 287 0.0 0.0 0.00 0.06 0.00 99 991.4
20260508051004 39 287 0.0 0.0 0.00 0.06 0.00 99 991.8
20260508050006 39 287 0.0 0.0 0.00 0.06 0.00 99 991.8
20260508045005 39 287 0.0 0.0 0.00 0.06 0.00 99 992.1
20260508044004 39 287 0.0 0.0 0.00 0.06 0.00 99 991.9
20260508042004 39 287 0.0 0.0 0.00 0.06 0.00 98 991.8
20260508041004 40 287 0.0 0.0 0.00 0.06 0.00 98 992.0
20260508040005 40 287 0.0 0.0 0.00 0.06 0.00 98 991.9
20260508035005 40 287 0.0 0.0 0.00 0.06 0.06 98 992.0
20260508034004 40 287 0.0 0.0 0.00 0.06 0.06 98 991.9
20260508032005 40 287 0.0 0.0 0.00 0.06 0.06 97 992.1